Location: Cazavet
(43.0017°N, 1.0431°E)
Time: 20:51:28
(UTC+00:00)

Landsat 7 - Pass Details

Date: 18 January 2026
Orbit: 680 x 682 km, 97.9° (Epoch: 10 February)

Event Time Altitude Azimuth Distance (km) Brightness Sun altitude
Rises 06:48:16 0° 7° (N) 3,050 7.0 -6.6°
Reaches altitude 10° 06:50:34 10° 2° (N) 2,130 6.1 -6.2°
Maximum altitude 06:55:03 50° 288° (WNW) 868 4.0 -5.4°
Drops below altitude 10° 06:59:31 10° 213° (SSW) 2,114 6.2 -4.7°
Sets 07:01:47 0° 209° (SSW) 3,025 7.1 -4.3°
